Vertical_Velocity
1 -0 3 2 1 1 4 4 1 1 -1 -1 1 -2 3 2 -1 -1 -1 2 -0 5 -2 3 1 -3 1 4 0 -3 -2 3 -0 0 -5 7 1 -1 -1 -0 -0 -2 1 1 -1
1 1 2 1 2 -1 -2 -3 -2 -2 1 -2 2 -3 -4 -4 2 6 2 -1 -2 -1 -1 5 -4 2 2 1 -0 -1 5 -4 2 5 -10 4 -1 1 -3 1 0 -3 2 -2 0
1 0 -1 3 0 2 1 -1 -0 0 -2 1 -2 -2 5 -5 -3 1 -4 2 9 -2 -1 1 1 2 -1 2 1 0 2 -0 -2 6 -4 2 -3 4 -4 -1 -1 -2 2 2 -1
3 0 1 -2 1 -0 1 1 -1 -1 -0 -1 2 3 1 -3 4 2 -1 -2 4 -1 2 3 3 2 -1 1 0 -1 -2 -1 2 -0 -1 -0 1 2 -5 3 -1 4 -3 1 2
1 2 3 -1 2 1 1 2 2 1 3 2 0 1 -2 0 2 2 0 -1 -4 1 -1 -0 0 0 -1 -1 1 0 1 -0 -2 1 -2 1 -2 -1 -4 1 -3 3 -2 1 1
3 3 1 3 2 1 2 1 2 3 1 1 -0 -1 -2 2 3 -2 3 2 1 0 2 -1 0 2 2 2 -3 5 4 -4 1 -1 2 -1 -1 -1 -4 3 -2 -1 -1 -0 1
-1 2 4 4 1 4 -0 2 2 1 3 2 1 -0 0 -5 4 -1 1 1 2 3 -3 1 1 -4 2 -2 4 1 -3 -1 1 -1 4 -2 2 7 -0 -3 1 -2 1 -0 0
-0 2 -2 1 3 5 1 3 4 4 2 1 -0 -1 5 3 3 0 1 1 1 2 3 1 -0 -3 -3 6 -1 -1 -3 -1 2 1 1 -1 7 -1 7 -4 1 1 2 -1 0
3 2 5 1 -1 6 7 -2 -1 3 2 1 -1 -1 2 2 4 2 2 1 1 2 1 -1 -1 0 -1 -1 -3 -2 3 -1 -0 -4 -0 -2 -4 10 0 -1 0 -1 2 0 -0
6 10 6 4 3 2 4 4 -0 2 1 2 1 -4 8 3 2 4 1 3 0 1 -2 -2 -3 0 1 -2 5 1 -5 -6 -4 4 -3 -2 -0 2 -1 1 -1 -0 1 -1 2
1 -1 3 8 7 3 7 7 1 -3 5 8 3 -5 1 -1 -2 2 1 2 1 -2 -1 -0 -8 -0 8 -1 -1 -6 2 3 -10 6 -2 -2 -3 -0 -3 1 -0 2 2 -0 2
2 6 4 1 1 9 3 5 4 -7 -1 2 2 -4 10 -0 2 3 2 1 0 4 -6 -0 2 7 -1 -2 0 -5 0 -0 0 2 -4 -5 3 -5 7 -1 -3 -0 2 1 1
1 1 5 4 3 -2 4 2 -2 -0 -4 3 -1 -3 8 -1 -1 5 1 -3 3 -2 2 -1 11 1 0 2 -0 -1 -1 5 -8 2 -3 -3 -3 -1 -4 2 4 -1 -2 1 2
-2 1 -0 3 4 7 8 0 -3 1 -11 -6 1 -10 6 -2 -10 8 0 -3 1 3 0 -9 2 2 -2 4 1 0 4 0 -9 4 -7 -2 -13 -5 -2 2 -3 -5 -2 2 -1
0 -1 -0 0 3 5 5 5 1 6 -20 6 -1 11 4 -6 15 0 -3 1 0 8 -9 13 6 8 3 7 -3 -2 1 4 0 -0 -7 -0 -13 18 -6 -4 5 -3 -1 1 2
-3 -2 -3 2 3 3 3 5 3 3 -22 -11 -2 3 3 -1 -3 9 1 3 4 0 1 -3 5 3 1 4 2 7 -2 5 0 -5 -27 14 -3 4 -1 5 0 -7 5 1 -0
-1 -0 -3 3 2 -1 -1 3 32 -24 16 -5 4 1 -1 -1 -0 3 3 2 1 -2 4 6 -1 4 3 2 1 1 5 -3 -6 -15 -14 8 -15 14 1 -2 0 3 3 4 2
-1 2 -0 -3 1 -1 -1 2 -19 3 12 6 4 8 -1 1 4 5 2 -2 1 4 -5 0 -3 6 8 3 6 3 1 -1 -13 -6 0 2 -25 -1 10 -4 2 4 -1 -1 -1
-0 1 4 1 -3 1 5 3 3 12 6 -1 4 -2 -4 -3 2 2 1 -1 6 5 3 -2 -7 7 4 5 10 7 -18 16 8 -0 -8 -4 -6 2 5 2 -3 2 3 2 2
-1 -1 1 -3 1 -0 3 6 4 9 3 -0 -1 -3 6 1 -2 3 0 6 -1 3 7 -6 -5 -1 1 1 -2 -5 8 -4 -7 -8 -8 -6 -10 -2 7 4 1 3 1 1 1
-3 0 -4 -4 -4 5 1 -2 -8 1 4 -1 1 5 8 -3 7 -6 -2 7 -1 8 7 4 -0 0 0 2 7 5 -1 -4 9 -8 -6 -4 -11 4 5 2 2 1 3 1 2
-1 2 -1 -0 -2 4 8 -4 10 -5 2 -0 -5 -4 -2 28 3 -15 2 -2 9 4 4 7 -1 -2 4 4 -1 -6 -5 -3 -5 2 -0 -4 -6 -4 3 5 1 -0 -5 -2 1
-1 1 -0 2 -1 -0 -2 -1 -1 3 2 2 -2 -3 4 -0 -3 4 3 6 6 5 -3 7 -14 -1 0 -3 -4 -2 5 7 3 5 -8 -6 6 10 -4 -1 1 -0 -0 1 1
-2 4 2 1 3 3 1 1 2 3 3 -2 7 5 -1 0 -0 -5 0 4 7 0 3 4 -5 2 0 5 8 -5 9 6 3 -23 21 -11 3 2 -1 2 -0 -2 -0 -1 0
-1 -1 3 5 -2 -1 -1 -1 -1 -3 0 2 -0 2 -1 -2 -1 -2 -0 -2 8 -3 -0 -6 1 -2 6 1 -0 -0 0 0 -13 17 -20 20 -6 2 -3 -4 -3 -2 -0 3 -0
1 -1 -0 3 2 6 2 0 2 1 -0 1 1 2 1 1 3 -3 4 -1 15 14 5 -1 -5 -0 1 -1 -3 -5 -6 -4 -3 -5 -8 7 -1 5 8 -2 -1 4 0 4 1
-3 -3 -0 2 2 4 4 -1 -1 0 1 2 5 4 4 7 3 5 -0 -2 -3 3 9 4 -2 9 -11 5 -6 -20 9 1 6 6 14 -23 32 2 -1 0 5 5 -2 0 -0
Height
5763 5763 5762 5761 5760 5761 5761 5762 5763 5764 5764 5765 5767 5768 5769 5770 5772 5773 5775 5777 5777 5778 5780 5781 5783 5786 5785 5787 5789 5790 5793 5795 5796 5796 5797 5800 5801 5802 5802 5803 5805 5806 5808 5809 5810
5758 5758 5758 5758 5758 5757 5758 5758 5759 5760 5760 5762 5762 5763 5765 5766 5769 5770 5772 5774 5774 5775 5777 5778 5780 5781 5782 5783 5785 5785 5787 5790 5792 5793 5792 5795 5797 5797 5798 5799 5801 5801 5805 5805 5806
5752 5752 5752 5752 5752 5752 5751 5753 5754 5755 5756 5757 5758 5759 5760 5762 5764 5766 5767 5769 5770 5772 5774 5774 5775 5777 5779 5780 5780 5782 5783 5785 5787 5788 5789 5791 5791 5794 5793 5795 5796 5798 5800 5800 5802
5744 5744 5744 5744 5745 5745 5745 5745 5747 5748 5749 5751 5751 5753 5755 5757 5761 5760 5763 5764 5765 5767 5769 5770 5771 5773 5774 5775 5776 5777 5778 5780 5782 5783 5784 5786 5787 5789 5787 5791 5793 5794 5794 5795 5796
5737 5736 5736 5736 5736 5737 5738 5738 5739 5741 5742 5744 5746 5747 5749 5751 5755 5755 5757 5759 5761 5762 5764 5765 5767 5768 5769 5771 5772 5773 5774 5775 5777 5778 5780 5781 5782 5784 5784 5786 5787 5789 5789 5790 5791
5727 5727 5726 5726 5727 5728 5730 5731 5731 5732 5734 5736 5737 5739 5742 5746 5748 5749 5751 5753 5755 5757 5759 5760 5761 5763 5764 5766 5767 5769 5770 5770 5772 5773 5775 5776 5777 5779 5779 5781 5782 5783 5784 5784 5786
5717 5717 5716 5716 5716 5716 5718 5721 5722 5723 5725 5726 5728 5730 5733 5737 5740 5742 5744 5747 5749 5751 5753 5755 5756 5758 5760 5761 5763 5762 5765 5766 5768 5768 5769 5771 5773 5774 5776 5775 5777 5777 5778 5779 5781
5706 5705 5706 5705 5703 5704 5703 5708 5711 5713 5714 5717 5718 5720 5724 5728 5732 5735 5738 5741 5743 5745 5747 5749 5750 5752 5754 5757 5757 5758 5759 5761 5762 5762 5764 5765 5769 5768 5771 5770 5771 5772 5773 5774 5776
5693 5692 5691 5692 5691 5690 5692 5692 5697 5701 5704 5706 5709 5711 5715 5721 5725 5727 5730 5733 5735 5738 5741 5742 5744 5746 5748 5750 5752 5754 5756 5754 5755 5756 5758 5759 5760 5764 5763 5765 5766 5767 5769 5770 5771
5678 5678 5678 5678 5679 5679 5678 5679 5682 5690 5693 5695 5698 5702 5706 5713 5716 5719 5721 5724 5727 5730 5732 5736 5737 5739 5742 5745 5748 5747 5746 5747 5748 5752 5751 5752 5754 5757 5757 5759 5761 5763 5764 5765 5767
5663 5663 5662 5663 5665 5667 5669 5670 5672 5677 5682 5686 5688 5690 5695 5702 5705 5708 5712 5715 5717 5720 5725 5728 5727 5735 5739 5738 5739 5739 5741 5743 5742 5746 5745 5747 5748 5749 5751 5753 5755 5757 5759 5760 5762
5645 5646 5648 5649 5651 5654 5657 5660 5661 5663 5669 5673 5676 5680 5686 5690 5696 5699 5702 5706 5709 5714 5714 5718 5721 5728 5728 5730 5732 5733 5735 5735 5737 5738 5739 5739 5742 5741 5746 5747 5749 5751 5753 5755 5757
5632 5632 5633 5635 5637 5641 5646 5649 5651 5653 5657 5664 5666 5670 5676 5679 5684 5688 5693 5696 5701 5703 5706 5711 5717 5716 5719 5722 5724 5726 5728 5729 5728 5730 5730 5731 5733 5735 5737 5740 5743 5744 5746 5749 5751
5621 5620 5619 5621 5626 5629 5633 5636 5639 5644 5644 5653 5658 5660 5665 5669 5671 5681 5683 5687 5691 5696 5699 5699 5705 5709 5711 5714 5716 5718 5720 5721 5719 5721 5722 5723 5722 5728 5728 5732 5734 5737 5739 5742 5745
5611 5609 5608 5610 5614 5618 5621 5626 5629 5633 5634 5642 5648 5652 5656 5659 5665 5669 5674 5677 5682 5687 5687 5694 5697 5700 5703 5706 5706 5709 5711 5712 5711 5711 5711 5713 5713 5720 5719 5722 5727 5730 5732 5735 5738
5603 5601 5600 5601 5603 5607 5610 5616 5619 5624 5622 5628 5634 5641 5646 5650 5653 5659 5665 5668 5672 5675 5678 5681 5687 5690 5694 5697 5698 5701 5701 5703 5701 5700 5699 5706 5707 5707 5712 5717 5719 5721 5726 5728 5730
5596 5593 5592 5593 5595 5597 5602 5609 5613 5613 5621 5622 5627 5633 5638 5641 5644 5648 5654 5659 5663 5666 5669 5674 5676 5681 5684 5687 5689 5691 5693 5692 5692 5691 5690 5699 5697 5699 5704 5707 5711 5715 5717 5720 5721
5592 5589 5586 5586 5588 5589 5593 5601 5605 5610 5613 5615 5620 5623 5629 5633 5636 5639 5642 5647 5652 5657 5659 5662 5667 5672 5676 5678 5682 5683 5683 5682 5680 5682 5684 5688 5685 5691 5699 5698 5702 5706 5708 5710 5712
5587 5585 5582 5584 5585 5584 5589 5594 5600 5602 5606 5608 5613 5617 5623 5625 5629 5632 5635 5640 5645 5648 5652 5654 5656 5662 5666 5669 5672 5672 5671 5675 5672 5673 5673 5675 5679 5684 5690 5691 5693 5697 5699 5701 5703
5584 5583 5581 5582 5583 5584 5587 5591 5593 5595 5597 5602 5605 5610 5613 5616 5620 5623 5627 5633 5636 5640 5643 5643 5647 5652 5655 5657 5659 5661 5664 5662 5661 5663 5663 5665 5670 5675 5681 5684 5685 5687 5689 5692 5694
5582 5580 5579 5579 5580 5582 5586 5588 5588 5590 5593 5597 5600 5603 5604 5607 5611 5615 5620 5625 5627 5631 5632 5634 5637 5642 5645 5647 5650 5651 5651 5653 5656 5655 5656 5658 5661 5669 5672 5675 5678 5680 5682 5683 5685
5578 5578 5576 5575 5575 5574 5579 5580 5584 5585 5587 5590 5592 5595 5596 5599 5602 5605 5611 5615 5619 5622 5623 5626 5627 5630 5635 5637 5638 5638 5642 5644 5645 5649 5650 5652 5654 5658 5663 5666 5669 5672 5673 5675 5675
5575 5573 5573 5572 5572 5573 5575 5576 5577 5580 5580 5582 5584 5586 5588 5592 5595 5598 5602 5606 5610 5611 5613 5616 5617 5620 5624 5627 5628 5629 5634 5638 5639 5641 5642 5643 5644 5652 5654 5656 5658 5660 5662 5664 5665
5575 5572 5571 5570 5570 5571 5571 5572 5572 5573 5574 5574 5575 5577 5580 5584 5587 5589 5592 5596 5597 5601 5604 5606 5608 5611 5615 5617 5620 5622 5626 5628 5629 5628 5631 5633 5638 5641 5643 5645 5646 5648 5650 5652 5654
5575 5571 5569 5567 5566 5565 5565 5565 5566 5565 5565 5565 5567 5569 5571 5575 5578 5580 5583 5586 5588 5591 5593 5595 5598 5600 5603 5604 5607 5610 5613 5616 5617 5622 5620 5626 5628 5631 5631 5632 5634 5636 5638 5640 5642
5574 5570 5566 5564 5562 5561 5560 5559 5558 5558 5557 5558 5558 5560 5562 5565 5570 5572 5574 5576 5579 5581 5582 5586 5588 5590 5591 5592 5595 5598 5602 5606 5608 5610 5611 5615 5618 5620 5619 5619 5622 5624 5626 5628 5629
5572 5567 5563 5560 5557 5555 5554 5552 5552 5551 5552 5552 5552 5553 5556 5559 5561 5562 5564 5567 5567 5572 5575 5576 5578 5580 5581 5584 5585 5588 5593 5596 5598 5599 5601 5599 5607 5606 5606 5607 5608 5610 5611 5613 5615